This demonstration page uses our WeatherBlox Daily Observations layout. Learn more.

39.92423, -83.80882

Hourly Observations for August 23, 2017

Temp ( °F °C ) Dew Point ( °F °C ) Humidity (%) Winds ( mph kmh ) Pressure ( in mb ) Visibility ( mi km ) Precip ( " mm )
12:56 am 00:56 Clear 66 18.9 62 16.7 87 87 NNW 10 17 29.95 1014 10 16.0934 0 0
1:56 am 01:56 Clear 63 17.2 57 13.9 81 81 NNW 7 11 29.97 1015 10 16.0934 0 0
2:56 am 02:56 Clear 60 15.6 55 12.8 84 84 NW 5 7 29.97 1015 10 16.0934 0 0
3:56 am 03:56 Clear 58 14.4 55 12.8 90 90 NW 5 7 29.98 1015 10 16.0934 0 0
4:56 am 04:56 Clear 58 14.4 55 12.8 90 90 NW 7 11 29.98 1015 10 16.0934 0 0
5:56 am 05:56 Clear 57 13.9 54 12.2 90 90 NW 5 7 29.98 1015 10 16.0934 0 0
6:56 am 06:56 Sunny 55 12.8 53 11.7 93 93 NW 3 6 29.99 1016 10 16.0934 0 0
7:56 am 07:56 Sunny 58 14.4 56 13.3 93 93 Calm 30.01 1016 10 16.0934 0 0
8:56 am 08:56 Sunny 63 17.2 57 13.9 81 81 NW 3 6 30.01 1016 10 16.0934 0 0
9:56 am 09:56 Sunny 68 20 58 14.4 70 70 NW 6 9 30.02 1017 10 16.0934 0 0
10:56 am 10:56 Sunny 71 21.7 58 14.4 63 63 NW 7 11 30.03 1017 10 16.0934 0 0
11:56 am 11:56 Mostly Cloudy 70 21.1 57 13.9 64 64 WNW 7 11 30.04 1017 10 16.0934 0 0
12:56 pm 12:56 Mostly Cloudy 73 22.8 56 13.3 55 55 NW 8 13 30.02 1017 10 16.0934 0 0
1:56 pm 13:56 Partly Cloudy 72 22.2 55 12.8 55 55 WNW 8 13 30.02 1017 10 16.0934 0 0
2:56 pm 14:56 Partly Cloudy 75 23.9 55 12.8 50 50 NW 10 17 30.01 1016 10 16.0934 0 0
3:56 pm 15:56 Mostly Cloudy 73 22.8 53 11.7 50 50 NW 8 13 30 1016 10 16.0934 0 0
4:56 pm 16:56 Partly Cloudy 75 23.9 53 11.7 46 46 W 10 17 29.99 1016 10 16.0934 0 0
5:56 pm 17:56 Mostly Cloudy 73 22.8 53 11.7 50 50 NW 7 11 29.99 1016 10 16.0934 0 0
6:56 pm 18:56 Partly Cloudy 73 22.8 55 12.8 53 53 NW 7 11 29.99 1016 10 16.0934 0 0
7:56 pm 19:56 Sunny 70 21.1 56 13.3 61 61 NW 3 6 29.98 1015 10 16.0934 0 0
8:56 pm 20:56 Clear 64 17.8 56 13.3 75 75 WNW 5 7 29.99 1016 10 16.0934 0 0
9:56 pm 21:56 Mostly Cloudy 64 17.8 55 12.8 73 73 NW 6 9 30 1016 10 16.0934 0 0
10:56 pm 22:56 Clear 61 16.1 55 12.8 81 81 WNW 3 6 30 1016 10 16.0934 0 0
11:56 pm 23:56 Clear 60 15.6 54 12.2 80 80 NW 6 9 30.01 1016 10 16.0934 0 0

Powered by AerisWeather